Weather History for Roswell, NM

Change the Weather History Date:

Friday, March 21, 2014

  Actual Average Record
Temperature  
Mean Temperature 61 °F 54 °F  
Max Temperature 81 °F 70 °F 92 °F (1907)
Min Temperature 40 °F 38 °F 16 °F (1965)
Degree Days  
Heating Degree Days 4 11  
Month to date heating degree days 296 288  
Since 1 July heating degree days 2999 2995  
Cooling Degree Days 0 0  
Month to date cooling degree days 0 0  
Year to date cooling degree days 0 0  
Growing Degree Days 10 (Base 50)    
Moisture  
Dew Point 14 °F    
Average Humidity 22    
Maximum Humidity 36    
Minimum Humidity 7    
Precipitation  
Precipitation 0.00 in 0.02 in 2.97 in (1919)
Month to date precipitation 0.05 0.34  
Year to date precipitation 0.07 1.14  
Sea Level Pressure  
Sea Level Pressure 29.74 in    
Wind  
Wind Speed 7 mph (ESE)    
Max Wind Speed 24 mph    
Max Gust Speed 31 mph    
Visibility 10 miles    
Events      
T = Trace of Precipitation, MM = Missing Value Source: NWS Daily Summary

Daily Weather History Graph

Daily Weather History Graph

Search for Another Location

Airport:

Trip Planner

Search our weather history database for the weather conditions in past years. The results will help you decide how hot, cold, wet, or windy it might be!

Date:

Astronomy

Mar. 21, 2014 Rise Set
Actual Time 7:00 AM MDT 7:10 PM MDT
Civil Twilight 6:35 AM MDT 7:35 PM MDT
Nautical Twilight 6:06 AM MDT 8:04 PM MDT
Astronomical Twilight 5:37 AM MDT 8:33 PM MDT
Moon No Moon Rise 10:07 AM MDT (3/21)
Length of Visible Light 12h 59m
Length of Day
12h 10m
Waning Gibbous, 75% of the Moon is Illuminated
Mar 21
Waning Gibbous
Mar 23
Last Quarter
Mar 30
New
Apr 7
First Quarter
Apr 15
Full

Hourly Weather History & Observations

Time (MDT) Temp. Windchill Dew Point Humidity Pressure Visibility Wind Dir Wind Speed Gust Speed Precip Events Conditions
12:51 AM 52.0 °F - 9.0 °F 18% 29.75 in 10.0 mi SE 8.1 mph - N/A   Clear
1:51 AM 54.0 °F - 10.0 °F 17% 29.73 in 10.0 mi South 5.8 mph - N/A   Clear
2:51 AM 48.9 °F - 10.9 °F 22% 29.72 in 10.0 mi SSE 5.8 mph - N/A   Clear
3:51 AM 46.0 °F 43.1 °F 14.0 °F 28% 29.71 in 10.0 mi South 5.8 mph - N/A   Clear
4:51 AM 46.0 °F 44.8 °F 17.1 °F 31% 29.72 in 10.0 mi NE 3.5 mph - N/A   Clear
5:51 AM 42.1 °F 40.2 °F 16.0 °F 35% 29.75 in 10.0 mi NE 3.5 mph - N/A   Clear
6:51 AM 42.1 °F - 18.0 °F 38% 29.77 in 10.0 mi Calm Calm - N/A   Clear
7:51 AM 45.0 °F 42.6 °F 17.1 °F 33% 29.79 in 10.0 mi WSW 4.6 mph - N/A   Clear
8:51 AM 57.9 °F - 12.9 °F 17% 29.78 in 10.0 mi Calm Calm - N/A   Clear
9:51 AM 66.0 °F - 12.9 °F 13% 29.78 in 10.0 mi WNW 3.5 mph - N/A   Clear
10:51 AM 72.0 °F - 16.0 °F 12% 29.77 in 10.0 mi Calm Calm - N/A   Clear
11:51 AM 75.9 °F - 17.1 °F 11% 29.75 in 10.0 mi East 6.9 mph - N/A   Clear
12:51 PM 78.1 °F - 10.0 °F 7% 29.75 in 10.0 mi NNE 6.9 mph - N/A   Clear
1:51 PM 79.0 °F - 9.0 °F 7% 29.71 in 10.0 mi Variable 5.8 mph - N/A   Clear
2:26 PM 79.0 °F - 12.9 °F 8% 29.85 in 10.0 mi SE 13.8 mph 23.0 mph N/A   Clear
2:51 PM 81.0 °F - 12.9 °F 8% 29.70 in 10.0 mi SSE 13.8 mph 20.7 mph N/A   Clear
3:51 PM 80.1 °F - 12.0 °F 8% 29.69 in 10.0 mi ESE 11.5 mph 17.3 mph N/A   Clear
4:51 PM 79.0 °F - 12.0 °F 8% 29.68 in 10.0 mi ESE 13.8 mph - N/A   Clear
5:51 PM 78.1 °F - 12.0 °F 8% 29.69 in 10.0 mi SE 11.5 mph - N/A   Clear
6:51 PM 73.9 °F - 16.0 °F 11% 29.70 in 10.0 mi SE 3.5 mph - N/A   Clear
7:51 PM 72.0 °F - 12.0 °F 10% 29.71 in 10.0 mi Calm Calm - N/A   Clear
8:51 PM 69.1 °F - 12.0 °F 11% 29.73 in 10.0 mi WNW 6.9 mph - N/A   Clear
9:51 PM 63.0 °F - 17.1 °F 17% 29.75 in 10.0 mi NE 13.8 mph - N/A   Clear
10:51 PM 61.0 °F - 17.1 °F 18% 29.79 in 8.0 mi East 19.6 mph 28.8 mph N/A   Partly Cloudy
11:51 PM 59.0 °F - 17.1 °F 20% 29.81 in 10.0 mi East 18.4 mph - N/A   Clear